Regional Weather Roundup
Issued by NWS Bismarck, ND

Home | Current Version | Previous Version | Text Only | Print | Product List | Glossary On
Versions: 1 2 3 4 5 6 7 8 9 10 11 12 13 14 15 16 17 18 19 20 21 22 23 24 25 26 27 28 29 30 31 32 33 34 35 36 37 38 39 40 41 42 43 44 45 46 47 48 49 50
455
ASUS43 KBIS 242210
RWRBIS

NWR BROADCAST TEXT
NATIONAL WEATHER SERVICE BISMARCK ND
500 PM CDT TUE APR 24 2018

NOTE: "FAIR" INDICATES FEW OR NO CLOUDS BELOW 12,000 FEET WITH NO
SIGNIFICANT WEATHER AND/OR OBSTRUCTIONS TO VISIBILITY.


CITY           SKY/WX    TMP DP  RH WIND       PRES   REMARKS
WILLISTON      SUNNY     62  26  25 SW14      30.36F
MINOT          SUNNY     60  16  18 NW3G17    30.35F
MINOT AFB      SUNNY     58  20  22 W7        30.34F
BISMARCK       MOSUNNY   58  26  29 NW8       30.39F
DICKINSON      SUNNY     55  20  25 CALM      30.37F
GARRISON         N/A     58  22  24 NW9       30.37F
HETTINGER ARPT SUNNY     51  24  34 N7        30.43F
JAMESTOWN      SUNNY     56  27  32 N17G26    30.34F
CARRINGTON     FAIR      55  28  35 N15G22    30.38F
HAZEN          FAIR      57  21  24 N8G16     30.40F
LINTON           N/A    N/A N/A N/A N15G23    30.39F
MANDAN         FAIR      55  25  30 N15       30.39F
OAKES            N/A     54  32  43 N16G24    30.34F
RUGBY          FAIR      55  23  28 NW9G16    30.35F
STANLEY          N/A     55  21  26 NW6G14    30.38F HAZE
TIOGA          FAIR      57  23  26 W10G17    30.37F
WATFORD CITY   FAIR      59  23  25 NW8       30.37F
$$

CITY           SKY/WX    TMP DP  RH WIND       PRES   REMARKS
GRAND FORKS    FAIR      53  29  39 N20G28    30.35S
GRAND FORKS AF FAIR      54  25  33 N17G25    30.35F
DEVILS LAKE    FAIR      53  26  35 N14       30.37S
FARGO          FAIR      54  29  38 N23G32    30.33F
CANDO          FAIR      55  25  30 VRB5G18   30.37F
CAVALIER         N/A     54  25  32 NW16      30.36F
GRAFTON        FAIR      54  25  32 N16G22    30.37F
GWINNER          N/A     54  34  47 N17G26    30.34S
LANGDON        FAIR      54  25  32 N10G23    30.35F
ROLLA          FAIR      54  27  35 NW9       30.35F
WALHALLA       FAIR      52  25  35 N9        30.36F
$$

CITY           SKY/WX    TMP DP  RH WIND       PRES   REMARKS
ABERDEEN       SUNNY     54  33  45 N18G29    30.34F
MOBRIDGE       SUNNY     57  31  37 N18       30.35F
BUFFALO          N/A     53  22  29 W9        30.36F
RAPID CITY     PTSUNNY   50  26  39 N20G25    30.42F
GLASGOW        SUNNY     63  24  22 S12       30.33F
SIDNEY         SUNNY     60  28  29 W9        30.37F
WOLF POINT     SUNNY     64  24  21 W9        30.35F
GLENDIVE       SUNNY     57  32  38 S13       30.39
MILES CITY     MOSUNNY   55  32  41 W12       30.41F
BAKER          SUNNY     49  30  48 SW12      30.43F
$$

CITY           SKY/WX    TMP DP  RH WIND       PRES   REMARKS
BILLINGS       SUNNY     53  23  31 S6        30.42F
GREAT FALLS    SUNNY     64  26  23 S17G29    30.29F
REGINA         MOSUNNY   64  21  19 W15G24    30.25F
$$





USA.gov is the U.S. government's official web portal to all federal, state and local government web resources and services.